Year,Month,Day,Hour,Minute,Value (Times are PST for temperature in C)
2009,08,01,00,00,15.40
2009,08,01,00,01,15.40
2009,08,01,00,02,15.40
2009,08,01,00,03,15.30
2009,08,01,00,04,15.30
2009,08,01,00,05,15.20
2009,08,01,00,06,15.10
2009,08,01,00,07,15.10
2009,08,01,00,08,15.00
2009,08,01,00,09,15.00
2009,08,01,00,10,15.00
2009,08,01,00,11,15.00
2009,08,01,00,12,15.00
2009,08,01,00,13,15.00
2009,08,01,00,14,15.00
2009,08,01,00,15,15.00
2009,08,01,00,16,15.00
2009,08,01,00,17,15.00
2009,08,01,00,18,15.00
2009,08,01,00,19,15.00
2009,08,01,00,20,15.00
2009,08,01,00,21,15.00
2009,08,01,00,22,15.00
2009,08,01,00,23,15.00
2009,08,01,00,24,15.00
2009,08,01,00,25,15.00
2009,08,01,00,26,15.00
2009,08,01,00,27,15.00
2009,08,01,00,28,15.00
2009,08,01,00,29,15.00
2009,08,01,00,30,15.00
2009,08,01,00,31,15.00
2009,08,01,00,32,15.00
2009,08,01,00,33,15.00
2009,08,01,00,34,15.00
2009,08,01,00,35,15.00
2009,08,01,00,36,15.00
2009,08,01,00,37,15.00
2009,08,01,00,38,15.00
2009,08,01,00,39,15.00
2009,08,01,00,40,15.00
2009,08,01,00,41,15.00
2009,08,01,00,42,15.00
2009,08,01,00,43,15.00
2009,08,01,00,44,15.00
2009,08,01,00,45,15.00
2009,08,01,00,46,15.00
2009,08,01,00,47,15.00
2009,08,01,00,48,15.00
2009,08,01,00,49,15.00
2009,08,01,00,50,15.00
2009,08,01,00,51,15.00
2009,08,01,00,52,15.00
2009,08,01,00,53,15.00
2009,08,01,00,54,15.00
2009,08,01,00,55,15.00
2009,08,01,00,56,15.00
2009,08,01,00,57,15.00
2009,08,01,00,58,15.00
2009,08,01,00,59,15.00
2009,08,01,01,00,15.00
2009,08,01,01,01,15.00
2009,08,01,01,02,15.00
2009,08,01,01,03,15.00
2009,08,01,01,04,15.00
2009,08,01,01,05,15.00
2009,08,01,01,06,15.00
2009,08,01,01,07,15.00
2009,08,01,01,08,15.00
2009,08,01,01,09,15.00
2009,08,01,01,10,15.00
2009,08,01,01,11,15.00
2009,08,01,01,12,15.00
2009,08,01,01,13,15.00
2009,08,01,01,14,15.00
2009,08,01,01,15,15.00
2009,08,01,01,16,15.00
2009,08,01,01,17,14.90
2009,08,01,01,18,14.90
2009,08,01,01,19,14.90
2009,08,01,01,20,14.90
2009,08,01,01,21,14.80
2009,08,01,01,22,14.80
2009,08,01,01,23,14.80
2009,08,01,01,24,14.80
2009,08,01,01,25,14.70
2009,08,01,01,26,14.70
2009,08,01,01,27,14.70
2009,08,01,01,28,14.70
2009,08,01,01,29,14.60
2009,08,01,01,30,14.60
2009,08,01,01,31,14.60
2009,08,01,01,32,14.50
2009,08,01,01,33,14.50
2009,08,01,01,34,14.40
2009,08,01,01,35,14.40
2009,08,01,01,36,14.40
2009,08,01,01,37,14.40
2009,08,01,01,38,14.30
2009,08,01,01,39,14.30
2009,08,01,01,40,14.30
2009,08,01,01,41,14.20
2009,08,01,01,42,14.20
2009,08,01,01,43,14.20
2009,08,01,01,44,14.20
2009,08,01,01,45,14.20
2009,08,01,01,46,14.10
2009,08,01,01,47,14.10
2009,08,01,01,48,14.10
2009,08,01,01,49,14.10
2009,08,01,01,50,14.00
2009,08,01,01,51,14.00
2009,08,01,01,52,14.00
2009,08,01,01,53,14.00
2009,08,01,01,54,13.90
2009,08,01,01,55,13.90
2009,08,01,01,56,13.90
2009,08,01,01,57,13.90
2009,08,01,01,58,13.90
2009,08,01,01,59,13.80
2009,08,01,02,00,13.80
2009,08,01,02,01,13.80
2009,08,01,02,02,13.80
2009,08,01,02,03,13.80
2009,08,01,02,04,13.80
2009,08,01,02,05,13.70
2009,08,01,02,06,13.70
2009,08,01,02,07,13.70
2009,08,01,02,08,13.70
2009,08,01,02,09,13.70
2009,08,01,02,10,13.70
2009,08,01,02,11,13.70
2009,08,01,02,12,13.60
2009,08,01,02,13,13.60
2009,08,01,02,14,13.60
2009,08,01,02,15,13.60
2009,08,01,02,16,13.60
2009,08,01,02,17,13.60
2009,08,01,02,18,13.60
2009,08,01,02,19,13.60
2009,08,01,02,20,13.60
2009,08,01,02,21,13.60
2009,08,01,02,22,13.60
2009,08,01,02,23,13.60
2009,08,01,02,24,13.60
2009,08,01,02,25,13.60
2009,08,01,02,26,13.60
2009,08,01,02,27,13.60
2009,08,01,02,28,13.60
2009,08,01,02,29,13.60
2009,08,01,02,30,13.60
2009,08,01,02,31,13.60
2009,08,01,02,32,13.60
2009,08,01,02,33,13.60
2009,08,01,02,34,13.60
2009,08,01,02,35,13.60
2009,08,01,02,36,13.60
2009,08,01,02,37,13.60
2009,08,01,02,38,13.60
2009,08,01,02,39,13.60
2009,08,01,02,40,13.60
2009,08,01,02,41,13.60
2009,08,01,02,42,13.50
2009,08,01,02,43,13.50
2009,08,01,02,44,13.50
2009,08,01,02,45,13.50
2009,08,01,02,46,13.50
2009,08,01,02,47,13.40
2009,08,01,02,48,13.40
2009,08,01,02,49,13.40
2009,08,01,02,50,13.40
2009,08,01,02,51,13.40
2009,08,01,02,52,13.40
2009,08,01,02,53,13.40
2009,08,01,02,54,13.40
2009,08,01,02,55,13.30
2009,08,01,02,56,13.30
2009,08,01,02,57,13.30
2009,08,01,02,58,13.30
2009,08,01,02,59,13.30
2009,08,01,03,00,13.30
2009,08,01,03,01,13.30
2009,08,01,03,02,13.30
2009,08,01,03,03,13.30
2009,08,01,03,04,13.30
2009,08,01,03,05,13.20
2009,08,01,03,06,13.20
2009,08,01,03,07,13.20
2009,08,01,03,08,13.20
2009,08,01,03,09,13.20
2009,08,01,03,10,13.20
2009,08,01,03,11,13.20
2009,08,01,03,12,13.20
2009,08,01,03,13,13.20
2009,08,01,03,14,13.20
2009,08,01,03,15,13.10
2009,08,01,03,16,13.20
2009,08,01,03,17,13.10
2009,08,01,03,18,13.10
2009,08,01,03,19,13.10
2009,08,01,03,20,13.10
2009,08,01,03,21,13.10
2009,08,01,03,22,13.10
2009,08,01,03,23,13.10
2009,08,01,03,24,13.10
2009,08,01,03,25,13.10
2009,08,01,03,26,13.10
2009,08,01,03,27,13.10
2009,08,01,03,28,13.10
2009,08,01,03,29,13.10
2009,08,01,03,30,13.00
2009,08,01,03,31,13.00
2009,08,01,03,32,13.00
2009,08,01,03,33,13.00
2009,08,01,03,34,12.90
2009,08,01,03,35,12.90
2009,08,01,03,36,12.90
2009,08,01,03,37,12.90
2009,08,01,03,38,12.90
2009,08,01,03,39,12.90
2009,08,01,03,40,12.90
2009,08,01,03,41,12.90
2009,08,01,03,42,12.90
2009,08,01,03,43,12.90
2009,08,01,03,44,12.90
2009,08,01,03,45,12.90
2009,08,01,03,46,12.90
2009,08,01,03,47,12.90
2009,08,01,03,48,12.90
2009,08,01,03,49,12.90
2009,08,01,03,50,12.90
2009,08,01,03,51,12.90
2009,08,01,03,52,12.90
2009,08,01,03,53,12.90
2009,08,01,03,54,12.90
2009,08,01,03,55,12.90
2009,08,01,03,56,12.90
2009,08,01,03,57,12.90
2009,08,01,03,58,12.90
2009,08,01,03,59,12.90
2009,08,01,04,00,12.90
2009,08,01,04,01,12.90
2009,08,01,04,02,12.90
2009,08,01,04,03,12.90
2009,08,01,04,04,12.90
2009,08,01,04,05,12.90
2009,08,01,04,06,12.90
2009,08,01,04,07,12.90
2009,08,01,04,08,12.90
2009,08,01,04,09,12.90
2009,08,01,04,10,12.90
2009,08,01,04,11,12.90
2009,08,01,04,12,12.80
2009,08,01,04,13,12.80
2009,08,01,04,14,12.80
2009,08,01,04,15,12.80
2009,08,01,04,16,12.80
2009,08,01,04,17,12.80
2009,08,01,04,18,12.80
2009,08,01,04,19,12.80
2009,08,01,04,20,12.80
2009,08,01,04,21,12.80
2009,08,01,04,22,12.80
2009,08,01,04,23,12.80
2009,08,01,04,24,12.80
2009,08,01,04,25,12.80
2009,08,01,04,26,12.80
2009,08,01,04,27,12.80
2009,08,01,04,28,12.70
2009,08,01,04,29,12.70
2009,08,01,04,30,12.70
2009,08,01,04,31,12.70
2009,08,01,04,32,12.60
2009,08,01,04,33,12.60
2009,08,01,04,34,12.60
2009,08,01,04,35,12.60
2009,08,01,04,36,12.50
2009,08,01,04,37,12.50
2009,08,01,04,38,12.50
2009,08,01,04,39,12.40
2009,08,01,04,40,12.40
2009,08,01,04,41,12.40
2009,08,01,04,42,12.40
2009,08,01,04,43,12.30
2009,08,01,04,44,12.30
2009,08,01,04,45,12.30
2009,08,01,04,46,12.30
2009,08,01,04,47,12.30
2009,08,01,04,48,12.30
2009,08,01,04,49,12.30
2009,08,01,04,50,12.30
2009,08,01,04,51,12.20
2009,08,01,04,52,12.20
2009,08,01,04,53,12.20
2009,08,01,04,54,12.20
2009,08,01,04,55,12.20
2009,08,01,04,56,12.20
2009,08,01,04,57,12.20
2009,08,01,04,58,12.20
2009,08,01,04,59,12.20
2009,08,01,05,00,12.20
2009,08,01,05,01,12.20
2009,08,01,05,02,12.20
2009,08,01,05,03,12.10
2009,08,01,05,04,12.10
2009,08,01,05,05,12.10
2009,08,01,05,06,12.10
2009,08,01,05,07,12.10
2009,08,01,05,08,12.10
2009,08,01,05,09,12.10
2009,08,01,05,10,12.10
2009,08,01,05,11,12.10
2009,08,01,05,12,12.10
2009,08,01,05,13,12.10
2009,08,01,05,14,12.10
2009,08,01,05,15,12.10
2009,08,01,05,16,12.10
2009,08,01,05,17,12.10
2009,08,01,05,18,12.10
2009,08,01,05,19,12.10
2009,08,01,05,20,12.10
2009,08,01,05,21,12.10
2009,08,01,05,22,12.10
2009,08,01,05,23,12.10
2009,08,01,05,24,12.10
2009,08,01,05,25,12.10
2009,08,01,05,26,12.10
2009,08,01,05,27,12.10
2009,08,01,05,28,12.10
2009,08,01,05,29,12.10
2009,08,01,05,30,12.10
2009,08,01,05,31,12.10
2009,08,01,05,32,12.00
2009,08,01,05,33,12.00
2009,08,01,05,34,12.00
2009,08,01,05,35,12.00
2009,08,01,05,36,12.00
2009,08,01,05,37,12.00
2009,08,01,05,38,12.00
2009,08,01,05,39,12.00
2009,08,01,05,40,12.00
2009,08,01,05,41,12.00
2009,08,01,05,42,12.00
2009,08,01,05,43,12.00
2009,08,01,05,44,12.00
2009,08,01,05,45,12.00
2009,08,01,05,46,12.00
2009,08,01,05,47,12.00
2009,08,01,05,48,12.00
2009,08,01,05,49,12.00
2009,08,01,05,50,12.00
2009,08,01,05,51,12.00
2009,08,01,05,52,12.00
2009,08,01,05,53,12.00
2009,08,01,05,54,11.90
2009,08,01,05,55,11.90
2009,08,01,05,56,11.90
2009,08,01,05,57,11.90
2009,08,01,05,58,11.90
2009,08,01,05,59,11.90
2009,08,01,06,00,11.90
2009,08,01,06,01,11.90
2009,08,01,06,02,11.90
2009,08,01,06,03,11.90
2009,08,01,06,04,11.90
2009,08,01,06,05,11.90
2009,08,01,06,06,11.90
2009,08,01,06,07,11.90
2009,08,01,06,08,11.90
2009,08,01,06,09,11.90
2009,08,01,06,10,11.90
2009,08,01,06,11,11.90
2009,08,01,06,12,11.90
2009,08,01,06,13,11.90
2009,08,01,06,14,11.90
2009,08,01,06,15,11.90
2009,08,01,06,16,12.00
2009,08,01,06,17,12.00
2009,08,01,06,18,12.00
2009,08,01,06,19,12.00
2009,08,01,06,20,12.10
2009,08,01,06,21,12.10
2009,08,01,06,22,12.10
2009,08,01,06,23,12.10
2009,08,01,06,24,12.20
2009,08,01,06,25,12.20
2009,08,01,06,26,12.20
2009,08,01,06,27,12.20
2009,08,01,06,28,12.20
2009,08,01,06,29,12.20
2009,08,01,06,30,12.30
2009,08,01,06,31,12.30
2009,08,01,06,32,12.30
2009,08,01,06,33,12.30
2009,08,01,06,34,12.40
2009,08,01,06,35,12.40
2009,08,01,06,36,12.40
2009,08,01,06,37,12.50
2009,08,01,06,38,12.50
2009,08,01,06,39,12.50
2009,08,01,06,40,12.60
2009,08,01,06,41,12.60
2009,08,01,06,42,12.60
2009,08,01,06,43,12.70
2009,08,01,06,44,12.70
2009,08,01,06,45,12.70
2009,08,01,06,46,12.80
2009,08,01,06,47,12.80
2009,08,01,06,48,12.80
2009,08,01,06,49,12.90
2009,08,01,06,50,13.00
2009,08,01,06,51,13.10
2009,08,01,06,52,13.10
2009,08,01,06,53,13.20
2009,08,01,06,54,13.30
2009,08,01,06,55,13.40
2009,08,01,06,56,13.50
2009,08,01,06,57,13.60
2009,08,01,06,58,13.70
2009,08,01,06,59,13.70
2009,08,01,07,00,13.80
2009,08,01,07,01,13.90
2009,08,01,07,02,14.00
2009,08,01,07,03,14.00
2009,08,01,07,04,14.10
2009,08,01,07,05,14.20
2009,08,01,07,06,14.30
2009,08,01,07,07,14.40
2009,08,01,07,08,14.50
2009,08,01,07,09,14.60
2009,08,01,07,10,14.70
2009,08,01,07,11,14.80
2009,08,01,07,12,14.80
2009,08,01,07,13,15.00
2009,08,01,07,14,15.00
2009,08,01,07,15,15.00
2009,08,01,07,16,15.00
2009,08,01,07,17,15.00
2009,08,01,07,18,15.20
2009,08,01,07,19,15.30
2009,08,01,07,20,15.40
2009,08,01,07,21,15.40
2009,08,01,07,22,15.50
2009,08,01,07,23,15.60
2009,08,01,07,24,15.70
2009,08,01,07,25,15.70
2009,08,01,07,26,15.80
2009,08,01,07,27,15.80
2009,08,01,07,28,15.80
2009,08,01,07,29,15.80
2009,08,01,07,30,15.80
2009,08,01,07,31,15.80
2009,08,01,07,32,15.80
2009,08,01,07,33,15.80
2009,08,01,07,34,15.80
2009,08,01,07,35,15.80
2009,08,01,07,36,15.80
2009,08,01,07,37,15.80
2009,08,01,07,38,15.80
2009,08,01,07,39,15.90
2009,08,01,07,40,15.90
2009,08,01,07,41,15.90
2009,08,01,07,42,16.00
2009,08,01,07,43,16.10
2009,08,01,07,44,16.10
2009,08,01,07,45,16.20
2009,08,01,07,46,16.30
2009,08,01,07,47,16.40
2009,08,01,07,48,16.60
2009,08,01,07,49,16.70
2009,08,01,07,50,16.80
2009,08,01,07,51,17.00
2009,08,01,07,52,17.10
2009,08,01,07,53,17.20
2009,08,01,07,54,17.40
2009,08,01,07,55,17.40
2009,08,01,07,56,17.50
2009,08,01,07,57,17.50
2009,08,01,07,58,17.60
2009,08,01,07,59,17.60
2009,08,01,08,00,17.60
2009,08,01,08,01,17.50
2009,08,01,08,02,17.50
2009,08,01,08,03,17.40
2009,08,01,08,04,17.40
2009,08,01,08,05,17.30
2009,08,01,08,06,17.30
2009,08,01,08,07,17.30
2009,08,01,08,08,17.30
2009,08,01,08,09,17.30
2009,08,01,08,10,17.40
2009,08,01,08,11,17.50
2009,08,01,08,12,17.60
2009,08,01,08,13,17.70
2009,08,01,08,14,17.70
2009,08,01,08,15,17.80
2009,08,01,08,16,17.90
2009,08,01,08,17,18.00
2009,08,01,08,18,18.10
2009,08,01,08,19,18.10
2009,08,01,08,20,18.10
2009,08,01,08,21,18.10
2009,08,01,08,22,18.10
2009,08,01,08,23,18.00
2009,08,01,08,24,17.90
2009,08,01,08,25,17.80
2009,08,01,08,26,17.70
2009,08,01,08,27,17.70
2009,08,01,08,28,17.60
2009,08,01,08,29,17.50
2009,08,01,08,30,17.50
2009,08,01,08,31,17.40
2009,08,01,08,32,17.40
2009,08,01,08,33,17.40
2009,08,01,08,34,17.50
2009,08,01,08,35,17.50
2009,08,01,08,36,17.60
2009,08,01,08,37,17.60
2009,08,01,08,38,17.60
2009,08,01,08,39,17.70
2009,08,01,08,40,17.70
2009,08,01,08,41,17.70
2009,08,01,08,42,17.80
2009,08,01,08,43,17.80
2009,08,01,08,44,17.90
2009,08,01,08,45,18.00
2009,08,01,08,46,18.10
2009,08,01,08,47,18.20
2009,08,01,08,48,18.30
2009,08,01,08,49,18.40
2009,08,01,08,50,18.50
2009,08,01,08,51,18.50
2009,08,01,08,52,18.60
2009,08,01,08,53,18.70
2009,08,01,08,54,18.70
2009,08,01,08,55,18.80
2009,08,01,08,56,18.80
2009,08,01,08,57,18.90
2009,08,01,08,58,18.90
2009,08,01,08,59,19.00
2009,08,01,09,00,19.10
2009,08,01,09,01,19.10
2009,08,01,09,02,19.20
2009,08,01,09,03,19.30
2009,08,01,09,04,19.40
2009,08,01,09,05,19.40
2009,08,01,09,06,19.50
2009,08,01,09,07,19.60
2009,08,01,09,08,19.60
2009,08,01,09,09,19.70
2009,08,01,09,10,19.70
2009,08,01,09,11,19.80
2009,08,01,09,12,19.90
2009,08,01,09,13,19.90
2009,08,01,09,14,19.90
2009,08,01,09,15,19.80
2009,08,01,09,16,19.80
2009,08,01,09,17,19.80
2009,08,01,09,18,19.70
2009,08,01,09,19,19.60
2009,08,01,09,20,19.40
2009,08,01,09,21,19.30
2009,08,01,09,22,19.30
2009,08,01,09,23,19.20
2009,08,01,09,24,19.20
2009,08,01,09,25,19.30
2009,08,01,09,26,19.30
2009,08,01,09,27,19.30
2009,08,01,09,28,19.30
2009,08,01,09,29,19.40
2009,08,01,09,30,19.40
2009,08,01,09,31,19.50
2009,08,01,09,32,19.40
2009,08,01,09,33,19.40
2009,08,01,09,34,19.40
2009,08,01,09,35,19.50
2009,08,01,09,36,19.50
2009,08,01,09,37,19.40
2009,08,01,09,38,19.40
2009,08,01,09,39,19.30
2009,08,01,09,40,19.30
2009,08,01,09,41,19.30
2009,08,01,09,42,19.30
2009,08,01,09,43,19.30
2009,08,01,09,44,19.30
2009,08,01,09,45,19.40
2009,08,01,09,46,19.40
2009,08,01,09,47,19.50
2009,08,01,09,48,19.60
2009,08,01,09,49,19.60
2009,08,01,09,50,19.70
2009,08,01,09,51,19.70
2009,08,01,09,52,19.70
2009,08,01,09,53,19.70
2009,08,01,09,54,19.70
2009,08,01,09,55,19.70
2009,08,01,09,56,19.70
2009,08,01,09,57,19.70
2009,08,01,09,58,19.80
2009,08,01,09,59,19.80
2009,08,01,10,00,19.80
2009,08,01,10,01,19.70
2009,08,01,10,02,19.70
2009,08,01,10,03,19.70
2009,08,01,10,04,19.70
2009,08,01,10,05,19.70
2009,08,01,10,06,19.60
2009,08,01,10,07,19.60
2009,08,01,10,08,19.60
2009,08,01,10,09,19.70
2009,08,01,10,10,19.70
2009,08,01,10,11,19.80
2009,08,01,10,12,20.00
2009,08,01,10,13,20.10
2009,08,01,10,14,20.10
2009,08,01,10,15,20.20
2009,08,01,10,16,20.30
2009,08,01,10,17,20.40
2009,08,01,10,18,20.40
2009,08,01,10,19,20.50
2009,08,01,10,20,20.60
2009,08,01,10,21,20.60
2009,08,01,10,22,20.50
2009,08,01,10,23,20.40
2009,08,01,10,24,20.30
2009,08,01,10,25,20.20
2009,08,01,10,26,20.20
2009,08,01,10,27,20.20
2009,08,01,10,28,20.00
2009,08,01,10,29,20.00
2009,08,01,10,30,20.00
2009,08,01,10,31,20.00
2009,08,01,10,32,20.00
2009,08,01,10,33,20.10
2009,08,01,10,34,20.20
2009,08,01,10,35,20.30
2009,08,01,10,36,20.30
2009,08,01,10,37,20.30
2009,08,01,10,38,20.30
2009,08,01,10,39,20.30
2009,08,01,10,40,20.40
2009,08,01,10,41,20.50
2009,08,01,10,42,20.50
2009,08,01,10,43,20.50
2009,08,01,10,44,20.50
2009,08,01,10,45,20.40
2009,08,01,10,46,20.30
2009,08,01,10,47,20.30
2009,08,01,10,48,20.30
2009,08,01,10,49,20.30
2009,08,01,10,50,20.30
2009,08,01,10,51,20.20
2009,08,01,10,52,20.30
2009,08,01,10,53,20.40
2009,08,01,10,54,20.50
2009,08,01,10,55,20.50
2009,08,01,10,56,20.60
2009,08,01,10,57,20.60
2009,08,01,10,58,20.70
2009,08,01,10,59,20.70
2009,08,01,11,00,20.70
2009,08,01,11,01,20.70
2009,08,01,11,02,20.60
2009,08,01,11,03,20.60
2009,08,01,11,04,20.60
2009,08,01,11,05,20.60
2009,08,01,11,06,20.50
2009,08,01,11,07,20.50
2009,08,01,11,08,20.40
2009,08,01,11,09,20.40
2009,08,01,11,10,20.40
2009,08,01,11,11,20.40
2009,08,01,11,12,20.50
2009,08,01,11,13,20.60
2009,08,01,11,14,20.70
2009,08,01,11,15,20.80
2009,08,01,11,16,20.90
2009,08,01,11,17,21.00
2009,08,01,11,18,21.10
2009,08,01,11,19,21.10
2009,08,01,11,20,21.20
2009,08,01,11,21,21.20
2009,08,01,11,22,21.30
2009,08,01,11,23,21.30
2009,08,01,11,24,21.30
2009,08,01,11,25,21.30
2009,08,01,11,26,21.30
2009,08,01,11,27,21.40
2009,08,01,11,28,21.50
2009,08,01,11,29,21.60
2009,08,01,11,30,21.70
2009,08,01,11,31,21.90
2009,08,01,11,32,22.00
2009,08,01,11,33,22.20
2009,08,01,11,34,22.20
2009,08,01,11,35,22.30
2009,08,01,11,36,22.30
2009,08,01,11,37,22.20
2009,08,01,11,38,22.10
2009,08,01,11,39,22.10
2009,08,01,11,40,22.20
2009,08,01,11,41,22.20
2009,08,01,11,42,22.20
2009,08,01,11,43,22.20
2009,08,01,11,44,22.10
2009,08,01,11,45,22.10
2009,08,01,11,46,22.00
2009,08,01,11,47,22.00
2009,08,01,11,48,22.00
2009,08,01,11,49,22.10
2009,08,01,11,50,22.30
2009,08,01,11,51,22.40
2009,08,01,11,52,22.50
2009,08,01,11,53,22.50
2009,08,01,11,54,22.50
2009,08,01,11,55,22.40
2009,08,01,11,56,22.30
2009,08,01,11,57,22.30
2009,08,01,11,58,22.30
2009,08,01,11,59,22.30
2009,08,01,12,00,22.30
2009,08,01,12,01,22.30
2009,08,01,12,02,22.30
2009,08,01,12,03,22.30
2009,08,01,12,04,22.30
2009,08,01,12,05,22.40
2009,08,01,12,06,22.60
2009,08,01,12,07,22.70
2009,08,01,12,08,22.70
2009,08,01,12,09,22.80
2009,08,01,12,10,22.90
2009,08,01,12,11,22.90
2009,08,01,12,12,22.90
2009,08,01,12,13,22.90
2009,08,01,12,14,22.70
2009,08,01,12,15,22.70
2009,08,01,12,16,22.70
2009,08,01,12,17,22.70
2009,08,01,12,18,22.80
2009,08,01,12,19,22.90
2009,08,01,12,20,22.90
2009,08,01,12,21,22.90
2009,08,01,12,22,22.90
2009,08,01,12,23,23.00
2009,08,01,12,24,23.10
2009,08,01,12,25,23.10
2009,08,01,12,26,23.00
2009,08,01,12,27,22.90
2009,08,01,12,28,22.90
2009,08,01,12,29,23.00
2009,08,01,12,30,23.00
2009,08,01,12,31,23.00
2009,08,01,12,32,22.90
2009,08,01,12,33,22.80
2009,08,01,12,34,22.70
2009,08,01,12,35,22.60
2009,08,01,12,36,22.50
2009,08,01,12,37,22.40
2009,08,01,12,38,22.40
2009,08,01,12,39,22.40
2009,08,01,12,40,22.40
2009,08,01,12,41,22.50
2009,08,01,12,42,22.60
2009,08,01,12,43,22.80
2009,08,01,12,44,22.90
2009,08,01,12,45,23.10
2009,08,01,12,46,23.10
2009,08,01,12,47,23.10
2009,08,01,12,48,23.10
2009,08,01,12,49,23.20
2009,08,01,12,50,23.40
2009,08,01,12,51,23.50
2009,08,01,12,52,23.60
2009,08,01,12,53,23.60
2009,08,01,12,54,23.70
2009,08,01,12,55,23.60
2009,08,01,12,56,23.70
2009,08,01,12,57,23.70
2009,08,01,12,58,23.90
2009,08,01,12,59,24.00
2009,08,01,13,00,24.00
2009,08,01,13,01,24.00
2009,08,01,13,02,23.90
2009,08,01,13,03,23.80
2009,08,01,13,04,23.80
2009,08,01,13,05,23.70
2009,08,01,13,06,23.80
2009,08,01,13,07,24.00
2009,08,01,13,08,24.10
2009,08,01,13,09,24.20
2009,08,01,13,10,24.30
2009,08,01,13,11,24.30
2009,08,01,13,12,24.30
2009,08,01,13,13,24.20
2009,08,01,13,14,24.20
2009,08,01,13,15,24.20
2009,08,01,13,16,24.20
2009,08,01,13,17,24.30
2009,08,01,13,18,24.40
2009,08,01,13,19,24.50
2009,08,01,13,20,24.70
2009,08,01,13,21,24.80
2009,08,01,13,22,24.90
2009,08,01,13,23,25.00
2009,08,01,13,24,25.10
2009,08,01,13,25,25.10
2009,08,01,13,26,25.20
2009,08,01,13,27,25.20
2009,08,01,13,28,25.10
2009,08,01,13,29,25.00
2009,08,01,13,30,24.90
2009,08,01,13,31,24.90
2009,08,01,13,32,24.90
2009,08,01,13,33,24.90
2009,08,01,13,34,24.90
2009,08,01,13,35,25.00
2009,08,01,13,36,25.00
2009,08,01,13,37,25.00
2009,08,01,13,38,25.10
2009,08,01,13,39,25.00
2009,08,01,13,40,25.00
2009,08,01,13,41,25.10
2009,08,01,13,42,25.00
2009,08,01,13,43,24.80
2009,08,01,13,44,24.70
2009,08,01,13,45,24.60
2009,08,01,13,46,24.60
2009,08,01,13,47,24.70
2009,08,01,13,48,24.70
2009,08,01,13,49,24.80
2009,08,01,13,50,24.80
2009,08,01,13,51,24.80
2009,08,01,13,52,24.70
2009,08,01,13,53,24.70
2009,08,01,13,54,24.70
2009,08,01,13,55,24.70
2009,08,01,13,56,24.60
2009,08,01,13,57,24.50
2009,08,01,13,58,24.40
2009,08,01,13,59,24.40
2009,08,01,14,00,24.30
2009,08,01,14,01,24.40
2009,08,01,14,02,24.40
2009,08,01,14,03,24.40
2009,08,01,14,04,24.30
2009,08,01,14,05,24.30
2009,08,01,14,06,24.30
2009,08,01,14,07,24.30
2009,08,01,14,08,24.30
2009,08,01,14,09,24.30
2009,08,01,14,10,24.40
2009,08,01,14,11,24.50
2009,08,01,14,12,24.50
2009,08,01,14,13,24.50
2009,08,01,14,14,24.50
2009,08,01,14,15,24.60
2009,08,01,14,16,24.60
2009,08,01,14,17,24.60
2009,08,01,14,18,24.50
2009,08,01,14,19,24.40
2009,08,01,14,20,24.20
2009,08,01,14,21,24.00
2009,08,01,14,22,23.90
2009,08,01,14,23,23.70
2009,08,01,14,24,23.60
2009,08,01,14,25,23.50
2009,08,01,14,26,23.50
2009,08,01,14,27,23.50
2009,08,01,14,28,23.60
2009,08,01,14,29,23.70
2009,08,01,14,30,23.70
2009,08,01,14,31,23.80
2009,08,01,14,32,23.80
2009,08,01,14,33,23.80
2009,08,01,14,34,23.80
2009,08,01,14,35,23.90
2009,08,01,14,36,24.10
2009,08,01,14,37,24.20
2009,08,01,14,38,24.50
2009,08,01,14,39,24.60
2009,08,01,14,40,24.70
2009,08,01,14,41,24.80
2009,08,01,14,42,24.90
2009,08,01,14,43,24.90
2009,08,01,14,44,25.00
2009,08,01,14,45,25.10
2009,08,01,14,46,25.20
2009,08,01,14,47,25.20
2009,08,01,14,48,25.20
2009,08,01,14,49,25.10
2009,08,01,14,50,25.10
2009,08,01,14,51,25.00
2009,08,01,14,52,24.90
2009,08,01,14,53,24.90
2009,08,01,14,54,24.80
2009,08,01,14,55,24.80
2009,08,01,14,56,24.80
2009,08,01,14,57,24.70
2009,08,01,14,58,24.80
2009,08,01,14,59,24.70
2009,08,01,15,00,24.80
2009,08,01,15,01,24.80
2009,08,01,15,02,24.80
2009,08,01,15,03,24.80
2009,08,01,15,04,24.90
2009,08,01,15,05,24.80
2009,08,01,15,06,24.80
2009,08,01,15,07,24.80
2009,08,01,15,08,24.80
2009,08,01,15,09,24.70
2009,08,01,15,10,24.80
2009,08,01,15,11,24.80
2009,08,01,15,12,24.80
2009,08,01,15,13,24.80
2009,08,01,15,14,24.80
2009,08,01,15,15,24.80
2009,08,01,15,16,25.00
2009,08,01,15,17,25.10
2009,08,01,15,18,25.20
2009,08,01,15,19,25.30
2009,08,01,15,20,25.40
2009,08,01,15,21,25.30
2009,08,01,15,22,25.30
2009,08,01,15,23,25.30
2009,08,01,15,24,25.20
2009,08,01,15,25,25.20
2009,08,01,15,26,25.20
2009,08,01,15,27,25.20
2009,08,01,15,28,25.10
2009,08,01,15,29,25.00
2009,08,01,15,30,25.00
2009,08,01,15,31,24.90
2009,08,01,15,32,25.00
2009,08,01,15,33,25.10
2009,08,01,15,34,25.20
2009,08,01,15,35,25.30
2009,08,01,15,36,25.50
2009,08,01,15,37,25.60
2009,08,01,15,38,25.60
2009,08,01,15,39,25.70
2009,08,01,15,40,25.70
2009,08,01,15,41,25.80
2009,08,01,15,42,25.90
2009,08,01,15,43,25.90
2009,08,01,15,44,26.00
2009,08,01,15,45,26.10
2009,08,01,15,46,26.10
2009,08,01,15,47,26.10
2009,08,01,15,48,26.00
2009,08,01,15,49,26.10
2009,08,01,15,50,26.20
2009,08,01,15,51,26.30
2009,08,01,15,52,26.40
2009,08,01,15,53,26.40
2009,08,01,15,54,26.30
2009,08,01,15,55,26.20
2009,08,01,15,56,26.30
2009,08,01,15,57,26.30
2009,08,01,15,58,26.30
2009,08,01,15,59,26.30
2009,08,01,16,00,26.40
2009,08,01,16,01,26.50
2009,08,01,16,02,26.60
2009,08,01,16,03,26.70
2009,08,01,16,04,26.80
2009,08,01,16,05,26.90
2009,08,01,16,06,27.10
2009,08,01,16,07,27.20
2009,08,01,16,08,27.20
2009,08,01,16,09,27.30
2009,08,01,16,10,27.10
2009,08,01,16,11,26.90
2009,08,01,16,12,26.60
2009,08,01,16,13,26.50
2009,08,01,16,14,26.40
2009,08,01,16,15,26.30
2009,08,01,16,16,26.30
2009,08,01,16,17,26.20
2009,08,01,16,18,26.10
2009,08,01,16,19,25.90
2009,08,01,16,20,25.90
2009,08,01,16,21,25.80
2009,08,01,16,22,25.80
2009,08,01,16,23,25.90
2009,08,01,16,24,25.90
2009,08,01,16,25,25.90
2009,08,01,16,26,25.80
2009,08,01,16,27,25.70
2009,08,01,16,28,25.70
2009,08,01,16,29,25.70
2009,08,01,16,30,25.60
2009,08,01,16,31,25.50
2009,08,01,16,32,25.40
2009,08,01,16,33,25.50
2009,08,01,16,34,25.60
2009,08,01,16,35,25.60
2009,08,01,16,36,25.60
2009,08,01,16,37,25.50
2009,08,01,16,38,25.40
2009,08,01,16,39,25.40
2009,08,01,16,40,25.40
2009,08,01,16,41,25.50
2009,08,01,16,42,25.60
2009,08,01,16,43,25.70
2009,08,01,16,44,25.80
2009,08,01,16,45,25.90
2009,08,01,16,46,25.90
2009,08,01,16,47,25.90
2009,08,01,16,48,25.90
2009,08,01,16,49,25.90
2009,08,01,16,50,25.80
2009,08,01,16,51,25.70
2009,08,01,16,52,25.60
2009,08,01,16,53,25.60
2009,08,01,16,54,25.60
2009,08,01,16,55,25.60
2009,08,01,16,56,25.60
2009,08,01,16,57,25.60
2009,08,01,16,58,25.60
2009,08,01,16,59,25.50
2009,08,01,17,00,25.50
2009,08,01,17,01,25.40
2009,08,01,17,02,25.50
2009,08,01,17,03,25.40
2009,08,01,17,04,25.40
2009,08,01,17,05,25.40
2009,08,01,17,06,25.50
2009,08,01,17,07,25.60
2009,08,01,17,08,25.70
2009,08,01,17,09,25.70
2009,08,01,17,10,25.70
2009,08,01,17,11,25.80
2009,08,01,17,12,25.80
2009,08,01,17,13,25.80
2009,08,01,17,14,25.80
2009,08,01,17,15,25.80
2009,08,01,17,16,25.70
2009,08,01,17,17,25.70
2009,08,01,17,18,25.70
2009,08,01,17,19,25.70